Location: Bourg-d�Oueil
(42.8588°N, 0.4991°E)
Time: 18:47:21
(UTC+00:00)

Thor Agena Rocket - Pass Details

Date: 16 June 2021
Orbit: 759 x 808 km, 99.0° (Epoch: 02 August)

Event Time Altitude Azimuth Distance (km) Brightness Sun altitude
Rises 23:28:23 0° 19° (NNE) 3,322 7.8 -23.4°
Reaches altitude 10° 23:30:50 10° 25° (NNE) 2,381 6.8 -23.4°
Maximum altitude 23:35:55 48° 100° (E) 1,026 4.0 -23.5°
Enters shadow 23:36:30 46° 121° (ESE) 1,053 3.9 -23.6°
